DW5656 Weather Reports


time (UTC)temp
C
wind
direction
speed
KPH
gust
KPH
rain 1hr
cm
rain 24hr
cm
rain mn
cm
humidity
%
barometer
mb
20260901211211 26 225 6.4 16.1 0.00 0.00 0.00 65 1018.1
20260901210311 26 229 8.0 12.9 0.00 0.00 0.00 64 1017.9
20260901205411 27 229 8.0 22.5 0.00 0.00 0.00 62 1017.8
20260901204511 27 224 8.0 17.7 0.00 0.00 0.00 61 1017.5
20260901203611 28 226 8.0 19.3 0.00 0.00 0.00 61 1017.4
20260901202712 28 229 6.4 17.7 0.00 0.00 0.00 61 1017.1
20260901201811 28 224 6.4 12.9 0.00 0.00 0.00 62 1016.9
20260901200911 29 226 6.4 16.1 0.00 0.00 0.00 60 1016.7
20260901200011 30 222 8.0 16.1 0.00 0.00 0.00 53 1016.6
20260901195111 31 228 8.0 19.3 0.00 0.00 0.00 45 1016.2
20260901193826 32 237 6.4 16.1 0.00 0.00 0.00 41 1015.8
20260901192925 32 247 8.0 16.1 0.00 0.00 0.00 40 1015.5
20260901192026 32 259 6.4 17.7 0.00 0.00 0.00 39 1015.3
20260901191125 32 266 8.0 14.5 0.00 0.00 0.00 39 1015.1
20260901190225 32 263 8.0 17.7 0.00 0.00 0.00 39 1014.9
20260901185325 33 264 8.0 16.1 0.00 0.00 0.00 38 1014.8
20260901184425 33 266 8.0 14.5 0.00 0.00 0.00 38 1014.8
20260901183546 33 268 8.0 17.7 0.00 0.00 0.00 37 1014.7
20260901182625 34 269 11.3 17.7 0.00 0.00 0.00 34 1014.5
20260901181725 34 269 8.0 20.9 0.00 0.00 0.00 31 1014.6
20260901180825 35 269 6.4 19.3 0.00 0.00 0.00 30 1014.4
20260901175946 35 282 4.8 14.5 0.00 0.00 0.00 30 1014.3
20260901175025 35 238 4.8 12.9 0.00 0.00 0.00 35 1014.3
20260901174125 35 205 6.4 14.5 0.00 0.00 0.00 39 1014.3
20260901173226 35 222 8.0 14.5 0.00 0.00 0.00 38 1014.3
20260901172325 35 227 6.4 14.5 0.00 0.00 0.00 38 1014.3
20260901171425 35 245 6.4 9.7 0.00 0.00 0.00 36 1014.4
20260901170546 35 258 8.0 14.5 0.00 0.00 0.00 35 1014.3
20260901165646 35 232 4.8 17.7 0.00 0.00 0.00 35 1014.2
20260901164746 36 239 3.2 9.7 0.00 0.00 0.00 36 1014.2
20260901163825 35 238 4.8 12.9 0.00 0.00 0.00 37 1014.3
20260901162946 35 229 6.4 14.5 0.00 0.00 0.00 37 1014.4
20260901162025 35 217 6.4 12.9 0.00 0.00 0.00 37 1014.4
20260901161125 35 243 6.4 14.5 0.00 0.00 0.00 37 1014.4
20260901160225 35 188 6.4 14.5 0.00 0.00 0.00 37 1014.5
20260901155325 35 207 6.4 14.5 0.00 0.00 0.00 38 1014.5
20260901154425 35 200 6.4 14.5 0.00 0.00 0.00 38 1014.6
20260901153525 35 221 9.7 19.3 0.00 0.00 0.00 38 1014.7
20260901152625 34 217 9.7 19.3 0.00 0.00 0.00 38 1014.8
20260901151725 35 221 8.0 17.7 0.00 0.00 0.00 37 1014.9
20260901150825 35 210 6.4 17.7 0.00 0.00 0.00 38 1014.9
20260901145925 35 225 9.7 17.7 0.00 0.00 0.00 39 1014.8
20260901145025 34 212 8.0 22.5 0.00 0.00 0.00 39 1014.9
20260901144146 34 218 8.0 17.7 0.00 0.00 0.00 40 1015.1
20260901143246 33 231 9.7 16.1 0.00 0.00 0.00 42 1015.1
20260901142347 33 245 9.7 19.3 0.00 0.00 0.00 42 1015.2
20260901141425 33 250 9.7 19.3 0.00 0.00 0.00 42 1015.3
20260901140525 33 223 8.0 17.7 0.00 0.00 0.00 41 1015.4
20260901135646 33 222 8.0 16.1 0.00 0.00 0.00 41 1015.5
20260901134726 34 224 6.4 20.9 0.00 0.00 0.00 41 1015.6
20260901133824 33 200 6.4 16.1 0.00 0.00 0.00 42 1015.7
20260901132925 33 214 6.4 17.7 0.00 0.00 0.00 40 1015.8
20260901132025 33 249 3.2 14.5 0.00 0.00 0.00 39 1015.8
20260901131125 33 280 6.4 9.7 0.00 0.00 0.00 38 1015.9
20260901130224 33 225 6.4 12.9 0.00 0.00 0.00 38 1016.0
20260901125324 33 276 3.2 14.5 0.00 0.00 0.00 37 1015.9
20260901124424 33 262 4.8 16.1 0.00 0.00 0.00 38 1015.9
20260901123524 33 291 4.8 16.1 0.00 0.00 0.00 38 1016.1
20260901122624 33 251 4.8 11.3 0.00 0.00 0.00 37 1016.2
20260901121745 32 160 3.2 11.3 0.00 0.00 0.00 38 1016.3
20260901120824 32 229 3.2 9.7 0.00 0.00 0.00 37 1016.4
20260901115924 32 220 4.8 11.3 0.00 0.00 0.00 39 1016.6
20260901115024 31 212 4.8 9.7 0.00 0.00 0.00 39 1016.5
20260901114124 31 215 3.2 11.3 0.00 0.00 0.00 39 1016.6
20260901113224 31 260 3.2 12.9 0.00 0.00 0.00 40 1016.7
20260901112345 30 292 4.8 9.7 0.00 0.00 0.00 40 1016.8
20260901111424 30 265 3.2 12.9 0.00 0.00 0.00 40 1016.8
20260901110524 30 307 3.2 8.0 0.00 0.00 0.00 40 1016.8
20260901105624 30 328 4.8 8.0 0.00 0.00 0.00 40 1016.9
20260901104724 30 286 3.2 9.7 0.00 0.00 0.00 40 1017.1
20260901103824 30 298 1.6 4.8 0.00 0.00 0.00 40 1017.1
20260901102924 29 277 3.2 8.0 0.00 0.00 0.00 41 1017.1
20260901102024 30 218 1.6 8.0 0.00 0.00 0.00 41 1017.1
20260901101125 30 210 1.6 4.8 0.00 0.00 0.00 41 1016.9
20260901100224 29 193 3.2 6.4 0.00 0.00 0.00 42 1017.1
20260901095345 28 225 3.2 8.0 0.00 0.00 0.00 42 1017.0
20260901094424 28 140 3.2 8.0 0.00 0.00 0.00 43 1017.2
20260901093524 28 66 1.6 6.4 0.00 0.00 0.00 44 1017.1
20260901092624 28 58 3.2 6.4 0.00 0.00 0.00 45 1017.1
20260901091745 27 72 3.2 6.4 0.00 0.00 0.00 46 1017.0
20260901090825 27 66 3.2 8.0 0.00 0.00 0.00 47 1016.9
20260901085945 27 75 1.6 4.8 0.00 0.00 0.00 46 1017.0
20260901085024 27 60 1.6 6.4 0.00 0.00 0.00 48 1017.1
20260901084124 26 74 1.6 6.4 0.00 0.00 0.00 49 1017.1
20260901083224 26 28 1.6 4.8 0.00 0.00 0.00 50 1017.1
20260901082324 26 24 1.6 4.8 0.00 0.00 0.00 51 1017.1
20260901081424 25 38 1.6 3.2 0.00 0.00 0.00 50 1017.0
20260901080523 25 53 0.0 3.2 0.00 0.00 0.00 52 1016.9
20260901075624 25 56 1.6 3.2 0.00 0.00 0.00 52 1016.8
20260901074723 25 56 1.6 4.8 0.00 0.00 0.00 52 1016.8
20260901073823 24 55 1.6 6.4 0.00 0.00 0.00 53 1016.8
20260901072944 24 56 3.2 4.8 0.00 0.00 0.00 54 1016.8
20260901072023 23 57 3.2 6.4 0.00 0.00 0.00 54 1016.8
20260901071144 23 57 3.2 4.8 0.00 0.00 0.00 55 1016.7
20260901070223 23 57 3.2 4.8 0.00 0.00 0.00 55 1016.7
20260901065323 23 61 3.2 6.4 0.00 0.00 0.00 56 1016.5
20260901064444 22 51 1.6 6.4 0.00 0.00 0.00 56 1016.4
20260901063544 22 17 1.6 4.8 0.00 0.00 0.00 58 1016.2
20260901062623 22 17 3.2 4.8 0.00 0.00 0.00 59 1016.2
20260901061723 22 36 3.2 4.8 0.00 0.00 0.00 59 1016.0
20260901060823 22 39 3.2 8.0 0.00 0.00 0.00 58 1016.0
20260901055924 22 41 1.6 6.4 0.00 0.00 0.00 58 1016.0
20260901055023 22 85 3.2 6.4 0.00 0.00 0.00 59 1016.0
20260901054123 22 88 3.2 6.4 0.00 0.00 0.00 59 1016.0
20260901053244 22 49 3.2 6.4 0.00 0.00 0.00 61 1015.9
20260901052344 22 3 3.2 6.4 0.00 0.00 0.00 63 1015.9
20260901051423 22 13 6.4 9.7 0.00 0.00 0.00 63 1015.8
20260901050544 22 19 6.4 12.9 0.00 0.00 0.00 62 1015.7
20260901045644 22 37 4.8 9.7 0.00 0.00 0.00 63 1015.7
20260901044723 22 65 3.2 8.0 0.00 0.00 0.00 63 1015.6
20260901043823 22 52 3.2 8.0 0.00 0.00 0.00 64 1015.7
20260901042923 22 46 3.2 6.4 0.00 0.00 0.00 63 1015.7
20260901042023 23 22 3.2 6.4 0.00 0.00 0.00 62 1015.9
20260901041144 23 16 3.2 8.0 0.00 0.00 0.00 62 1016.0
20260901040244 23 13 4.8 8.0 0.00 0.00 0.00 60 1016.0
20260901035323 23 14 4.8 8.0 0.00 0.00 0.00 59 1016.1
20260901034423 23 350 4.8 8.0 0.00 0.00 0.00 58 1016.1
20260901033523 23 3 4.8 8.0 0.00 0.00 0.00 57 1016.1
20260901032623 23 18 4.8 8.0 0.00 0.00 0.00 56 1016.1
20260901031723 23 24 4.8 8.0 0.00 0.00 0.00 59 1016.2
20260901030823 23 3 3.2 11.3 0.00 0.00 0.00 64 1016.1
20260901025923 23 288 0.0 8.0 0.00 0.00 0.00 64 1016.1
20260901025023 23 276 0.0 1.6 0.00 0.00 0.00 64 1016.1
20260901024144 23 0 0.0 0.0 0.00 0.00 0.00 64 1016.2
20260901023223 23 276 1.6 3.2 0.00 0.00 0.00 64 1016.2
20260901022323 23 276 1.6 4.8 0.00 0.00 0.00 64 1016.3
20260901021423 23 276 1.6 4.8 0.00 0.00 0.00 64 1016.3
20260901020544 23 276 3.2 6.4 0.00 0.00 0.00 64 1016.4
20260901015623 23 258 3.2 6.4 0.00 0.00 0.00 65 1016.4
20260901014722 22 255 3.2 6.4 0.00 0.00 0.00 66 1016.4
20260901013823 22 240 3.2 8.0 0.00 0.00 0.00 66 1016.5
20260901012944 22 225 3.2 8.0 0.00 0.00 0.00 66 1016.6
20260901012022 22 219 4.8 8.0 0.00 0.00 0.00 67 1016.6
20260901011122 22 230 3.2 9.7 0.00 0.00 0.00 67 1016.5
20260901010222 22 234 3.2 8.0 0.00 0.00 0.00 66 1016.5
20260901005322 22 231 4.8 11.3 0.00 0.00 0.00 66 1016.5
20260901004422 22 226 6.4 14.5 0.00 0.00 0.00 65 1016.6
20260901003522 22 231 4.8 14.5 0.00 0.00 0.00 64 1016.6
20260901002622 22 240 6.4 11.3 0.00 0.00 0.00 64 1016.6
20260901001722 22 228 8.0 16.1 0.00 0.00 0.00 63 1016.7
20260901000822 23 221 6.4 16.1 0.00 0.00 0.00 61 1016.5
20260831235922 23 237 4.8 14.5 0.00 0.00 0.00 57 1016.4
20260831235022 23 225 3.2 11.3 0.00 0.00 0.00 56 1016.4
20260831234122 24 233 3.2 11.3 0.00 0.00 0.00 54 1016.3
20260831233243 24 218 4.8 11.3 0.00 0.00 0.00 53 1016.2
20260831232322 24 215 4.8 12.9 0.00 0.00 0.00 51 1016.2
20260831231422 25 218 4.8 11.3 0.00 0.00 0.00 49 1016.2
20260831230522 25 220 4.8 9.7 0.00 0.00 0.00 48 1016.2
20260831225622 25 211 3.2 12.9 0.00 0.00 0.00 48 1016.1
20260831224722 25 217 3.2 9.7 0.00 0.00 0.00 48 1016.0
20260831223822 26 242 3.2 6.4 0.00 0.00 0.00 49 1016.0
20260831222922 26 244 3.2 6.4 0.00 0.00 0.00 49 1016.1
20260831222022 26 231 3.2 8.0 0.00 0.00 0.00 49 1016.1
20260831221122 26 207 3.2 6.4 0.00 0.00 0.00 48 1016.2
20260831220243 26 236 4.8 8.0 0.00 0.00 0.00 48 1016.2
20260831215322 27 225 3.2 9.7 0.00 0.00 0.00 47 1016.3
20260831214422 27 225 4.8 9.7 0.00 0.00 0.00 47 1016.3
20260831213522 27 241 4.8 11.3 0.00 0.00 0.00 45 1016.4
20260831212622 28 247 4.8 8.0 0.00 0.00 0.00 42 1016.4
20260831211722 29 226 3.2 8.0 0.00 0.00 0.00 39 1016.3